Location: Palomar Mountain Lodge
(33.3110°N, 116.8495°W)
Time: 00:04:22
(UTC-08:00)

Cosmos 1656 - Pass Details

Date: 12 July 2018
Orbit: 797 x 850 km, 71.1° (Epoch: 20 November)

Event Time Altitude Azimuth Distance (km) Brightness Sun altitude
Exits shadow 23:17:59 42° 43° (NE) 1,173 4.5 -30.4°
Drops below altitude 10° 23:21:43 10° 27° (NNE) 2,438 6.5 -30.7°
Sets 23:24:10 0° 24° (NNE) 3,367 7.4 -30.9°
